N604PS KCLE-KIND

Flight info

Callsign N604PS
Flight time 1h 3m
Altitude 38000
Route ZAAPA6 SINKR SNKPT SNKPT2
Aircraft CL60/M-SBDE1E2E3FGHIJ1J4J5J7M3RWXYZ/LB1V1D1

Departure

Time 2026-05-06 01:57
Airport Cleveland Hopkins International Airport (KCLE)

Arrival

Time 2026-05-06 03:00
Airport Indianapolis International Airport (KIND)
Time Latitude Longitude Altitude Speed Heading
2026-05-06 00:44 41.40137 -81.85416 784 ft 0 kts
2026-05-06 01:49 41.40141 -81.85415 784 ft 1 kts 22°
2026-05-06 01:50 41.40165 -81.85399 784 ft 5 kts 15°
2026-05-06 01:50 41.40220 -81.85391 784 ft 10 kts
2026-05-06 01:50 41.40286 -81.85398 784 ft 10 kts 342°
2026-05-06 01:50 41.40354 -81.85436 783 ft 9 kts 340°
2026-05-06 01:51 41.40433 -81.85470 782 ft 12 kts 342°
2026-05-06 01:51 41.40510 -81.85504 781 ft 11 kts 343°
2026-05-06 01:51 41.40541 -81.85550 781 ft 9 kts 237°
2026-05-06 01:51 41.40489 -81.85633 780 ft 14 kts 230°
2026-05-06 01:52 41.40441 -81.85710 779 ft 11 kts 230°
2026-05-06 01:52 41.40396 -81.85781 779 ft 11 kts 229°
2026-05-06 01:52 41.40338 -81.85873 778 ft 9 kts 231°
2026-05-06 01:52 41.40281 -81.85935 777 ft 11 kts 204°
2026-05-06 01:53 41.40205 -81.85953 776 ft 11 kts 187°
2026-05-06 01:53 41.40146 -81.85983 775 ft 8 kts 214°
2026-05-06 01:53 41.40091 -81.86058 774 ft 11 kts 233°
2026-05-06 01:53 41.40029 -81.86159 772 ft 11 kts 230°
2026-05-06 01:54 41.39989 -81.86226 771 ft 9 kts 243°
2026-05-06 01:54 41.39994 -81.86293 769 ft 8 kts 313°
2026-05-06 01:54 41.40013 -81.86314 768 ft 0 kts 322°
2026-05-06 01:54 41.40021 -81.86323 768 ft 1 kts 321°
2026-05-06 01:55 41.40022 -81.86324 768 ft 0 kts 320°
2026-05-06 01:55 41.40038 -81.86341 768 ft 0 kts 321°
2026-05-06 01:55 41.40062 -81.86368 767 ft 8 kts 320°
2026-05-06 01:55 41.40087 -81.86395 766 ft 2 kts 328°
2026-05-06 01:56 41.40123 -81.86400 766 ft 7 kts 20°
2026-05-06 01:56 41.40153 -81.86362 767 ft 0 kts 50°
2026-05-06 01:56 41.40165 -81.86343 767 ft 24 kts 50°
2026-05-06 01:56 41.40574 -81.85696 787 ft 151 kts 50°
2026-05-06 01:57 41.41335 -81.84527 1841 ft 187 kts 44°
2026-05-06 01:57 41.42255 -81.83206 3258 ft 216 kts 47°
2026-05-06 01:57 41.43366 -81.81445 3645 ft 290 kts 47°
2026-05-06 01:57 41.44705 -81.79296 4155 ft 297 kts 46°
2026-05-06 01:58 41.46018 -81.77304 5211 ft 277 kts 46°
2026-05-06 01:58 41.47251 -81.75429 5858 ft 252 kts 48°
2026-05-06 01:58 41.48366 -81.73707 6527 ft 244 kts 48°
2026-05-06 01:58 41.49496 -81.71984 7091 ft 246 kts 48°
2026-05-06 01:59 41.50654 -81.70194 7637 ft 248 kts 48°
2026-05-06 01:59 41.51894 -81.68589 8173 ft 248 kts 25°
2026-05-06 01:59 41.53590 -81.68114 8726 ft 234 kts 340°
2026-05-06 01:59 41.55094 -81.68982 9242 ft 219 kts 310°
2026-05-06 02:00 41.56087 -81.70542 9775 ft 205 kts 287°
2026-05-06 02:00 41.56524 -81.72388 10318 ft 197 kts 268°
2026-05-06 02:00 41.56451 -81.74284 10848 ft 202 kts 252°
2026-05-06 02:00 41.55959 -81.76324 11385 ft 242 kts 247°
2026-05-06 02:01 41.55296 -81.78709 11852 ft 271 kts 246°
2026-05-06 02:01 41.54601 -81.81226 12375 ft 277 kts 247°
2026-05-06 02:01 41.53919 -81.83753 12926 ft 277 kts 246°
2026-05-06 02:01 41.53237 -81.86278 13459 ft 279 kts 247°
2026-05-06 02:02 41.52539 -81.88862 13857 ft 284 kts 248°
2026-05-06 02:02 41.51842 -81.91439 13950 ft 284 kts 247°
2026-05-06 02:02 41.51164 -81.93968 13987 ft 283 kts 247°
2026-05-06 02:02 41.50478 -81.96517 13993 ft 282 kts 248°
2026-05-06 02:03 41.49801 -81.99045 13989 ft 283 kts 248°
2026-05-06 02:03 41.49095 -82.01593 13985 ft 283 kts 244°
2026-05-06 02:03 41.47970 -82.03754 13971 ft 281 kts 227°
2026-05-06 02:03 41.46593 -82.05630 13955 ft 280 kts 226°
2026-05-06 02:04 41.45214 -82.07532 13981 ft 281 kts 226°
2026-05-06 02:04 41.43818 -82.09462 14312 ft 277 kts 227°
2026-05-06 02:04 41.42417 -82.11410 14907 ft 279 kts 227°
2026-05-06 02:04 41.40983 -82.13397 15518 ft 286 kts 227°
2026-05-06 02:05 41.39554 -82.15382 16097 ft 290 kts 228°
2026-05-06 02:05 41.38105 -82.17397 16672 ft 293 kts 228°
2026-05-06 02:05 41.36659 -82.19402 17225 ft 295 kts 229°
2026-05-06 02:05 41.35180 -82.21462 17759 ft 297 kts 228°
2026-05-06 02:06 41.33693 -82.23533 18306 ft 298 kts 230°
2026-05-06 02:06 41.32184 -82.25639 18840 ft 302 kts 228°
2026-05-06 02:06 41.30678 -82.27732 19398 ft 305 kts 229°
2026-05-06 02:06 41.29134 -82.29874 19978 ft 309 kts 229°
2026-05-06 02:07 41.27572 -82.32038 20554 ft 311 kts 228°
2026-05-06 02:07 41.26010 -82.34204 21110 ft 314 kts 230°
2026-05-06 02:07 41.24455 -82.36366 21668 ft 317 kts 229°
2026-05-06 02:07 41.22847 -82.38595 22257 ft 320 kts 229°
2026-05-06 02:08 41.21224 -82.40846 22843 ft 323 kts 229°
2026-05-06 02:08 41.19606 -82.43151 23453 ft 326 kts 233°
2026-05-06 02:08 41.18494 -82.45837 24063 ft 328 kts 249°
2026-05-06 02:08 41.17694 -82.48825 24635 ft 332 kts 250°
2026-05-06 02:09 41.16885 -82.51863 25223 ft 334 kts 250°
2026-05-06 02:09 41.16092 -82.54843 25797 ft 335 kts 251°
2026-05-06 02:09 41.15273 -82.57921 26387 ft 340 kts 251°
2026-05-06 02:09 41.14444 -82.61043 26975 ft 346 kts 251°
2026-05-06 02:10 41.13597 -82.64235 27491 ft 353 kts 251°
2026-05-06 02:10 41.12763 -82.67378 27956 ft 359 kts 250°
2026-05-06 02:10 41.11930 -82.70520 28411 ft 363 kts 251°
2026-05-06 02:10 41.11088 -82.73692 28868 ft 364 kts 251°
2026-05-06 02:11 41.10316 -82.76919 29337 ft 365 kts 255°
2026-05-06 02:11 41.09731 -82.80199 29789 ft 366 kts 256°
2026-05-06 02:11 41.09150 -82.83498 30223 ft 367 kts 256°
2026-05-06 02:11 41.08562 -82.86819 30678 ft 367 kts 257°
2026-05-06 02:12 41.07975 -82.90129 31131 ft 367 kts 258°
2026-05-06 02:12 41.07387 -82.93449 31584 ft 368 kts 258°
2026-05-06 02:12 41.06801 -82.96753 32040 ft 368 kts 259°
2026-05-06 02:12 41.06214 -83.00062 32489 ft 366 kts 259°
2026-05-06 02:13 41.05629 -83.03348 32956 ft 365 kts 260°
2026-05-06 02:13 41.05048 -83.06612 33403 ft 362 kts 260°
2026-05-06 02:13 41.04468 -83.09871 33873 ft 359 kts 261°
2026-05-06 02:13 41.03889 -83.13117 34354 ft 356 kts 262°
2026-05-06 02:14 41.03316 -83.16329 34819 ft 354 kts 262°
2026-05-06 02:14 41.02750 -83.19496 35278 ft 351 kts 261°
2026-05-06 02:14 41.02191 -83.22625 35725 ft 348 kts 261°
2026-05-06 02:14 41.01633 -83.25735 36198 ft 345 kts 262°
2026-05-06 02:15 41.01081 -83.28815 36650 ft 342 kts 262°
2026-05-06 02:15 41.00535 -83.31857 37107 ft 338 kts 262°
2026-05-06 02:15 40.99996 -83.34861 37565 ft 334 kts 262°
2026-05-06 02:15 40.99459 -83.37847 37846 ft 334 kts 263°
2026-05-06 02:16 40.98366 -83.43930 37872 ft 343 kts 262°
2026-05-06 02:16 40.97251 -83.50096 37883 ft 345 kts 262°
2026-05-06 02:17 40.96130 -83.56263 37891 ft 344 kts 262°
2026-05-06 02:17 40.95008 -83.62411 37886 ft 342 kts 262°
2026-05-06 02:18 40.93880 -83.68577 37884 ft 343 kts 262°
2026-05-06 02:18 40.92754 -83.74711 37883 ft 343 kts 261°
2026-05-06 02:19 40.91625 -83.80839 37890 ft 343 kts 261°
2026-05-06 02:19 40.90362 -83.86932 37884 ft 347 kts 255°
2026-05-06 02:20 40.87888 -83.92543 37872 ft 362 kts 240°
2026-05-06 02:20 40.86208 -83.95059 37861 ft 369 kts 236°
2026-05-06 02:21 40.82269 -83.99602 37877 ft 380 kts 230°
2026-05-06 02:21 40.78107 -84.03943 37874 ft 381 kts 230°
2026-05-06 02:22 40.73947 -84.08286 37871 ft 381 kts 230°
2026-05-06 02:22 40.69785 -84.12634 37867 ft 381 kts 230°
2026-05-06 02:23 40.65608 -84.16996 37868 ft 382 kts 230°
2026-05-06 02:23 40.61440 -84.21346 37865 ft 382 kts 230°
2026-05-06 02:24 40.57278 -84.25685 37868 ft 381 kts 230°
2026-05-06 02:24 40.53106 -84.30030 37863 ft 381 kts 230°
2026-05-06 02:25 40.48964 -84.34375 37872 ft 377 kts 232°
2026-05-06 02:25 40.45590 -84.39473 37871 ft 358 kts 247°
2026-05-06 02:26 40.43657 -84.45507 37866 ft 345 kts 260°
2026-05-06 02:26 40.42326 -84.51762 37858 ft 345 kts 259°
2026-05-06 02:27 40.41026 -84.57878 37854 ft 344 kts 260°
2026-05-06 02:27 40.40375 -84.60949 37386 ft 351 kts 260°
2026-05-06 02:27 40.39718 -84.64040 36790 ft 349 kts 260°
2026-05-06 02:27 40.39062 -84.67129 36190 ft 346 kts 259°
2026-05-06 02:28 40.38423 -84.70132 35598 ft 342 kts 259°
2026-05-06 02:28 40.37786 -84.73125 35010 ft 337 kts 259°
2026-05-06 02:28 40.37177 -84.75993 34432 ft 334 kts 259°
2026-05-06 02:28 40.36570 -84.78849 33846 ft 330 kts 259°
2026-05-06 02:29 40.35945 -84.81782 33271 ft 327 kts 259°
2026-05-06 02:29 40.35336 -84.84646 32690 ft 327 kts 259°
2026-05-06 02:29 40.34726 -84.87511 32075 ft 326 kts 258°
2026-05-06 02:29 40.34116 -84.90375 31483 ft 325 kts 257°
2026-05-06 02:30 40.33505 -84.93240 30883 ft 325 kts 257°
2026-05-06 02:30 40.32894 -84.96099 30279 ft 325 kts 256°
2026-05-06 02:30 40.32284 -84.98961 29656 ft 324 kts 256°
2026-05-06 02:30 40.31675 -85.01809 29032 ft 323 kts 256°
2026-05-06 02:31 40.31069 -85.04640 28420 ft 321 kts 256°
2026-05-06 02:31 40.30466 -85.07460 27816 ft 320 kts 256°
2026-05-06 02:31 40.29859 -85.10287 27198 ft 319 kts 255°
2026-05-06 02:31 40.29250 -85.13120 26578 ft 317 kts 255°
2026-05-06 02:32 40.28650 -85.15914 25982 ft 315 kts 254°
2026-05-06 02:32 40.28055 -85.18684 25388 ft 313 kts 254°
2026-05-06 02:32 40.27459 -85.21444 24768 ft 313 kts 254°
2026-05-06 02:32 40.26868 -85.24179 24174 ft 312 kts 253°
2026-05-06 02:33 40.26276 -85.26920 23550 ft 312 kts 252°
2026-05-06 02:33 40.25880 -85.28750 23135 ft 311 kts 252°
2026-05-06 02:33 40.24499 -85.35133 21715 ft 309 kts 252°
2026-05-06 02:34 40.23909 -85.37841 21110 ft 307 kts 252°
2026-05-06 02:34 40.23200 -85.40484 20500 ft 305 kts 245°
2026-05-06 02:34 40.22176 -85.42968 19871 ft 303 kts 240°
2026-05-06 02:34 40.21085 -85.45438 19244 ft 301 kts 240°
2026-05-06 02:35 40.20004 -85.47898 18621 ft 299 kts 240°
2026-05-06 02:35 40.18930 -85.50348 17995 ft 297 kts 240°
2026-05-06 02:35 40.17867 -85.52776 17372 ft 295 kts 240°
2026-05-06 02:35 40.16818 -85.55175 16753 ft 293 kts 240°
2026-05-06 02:36 40.15781 -85.57548 16128 ft 292 kts 239°
2026-05-06 02:36 40.14741 -85.59937 15623 ft 286 kts 239°
2026-05-06 02:36 40.13740 -85.62236 15189 ft 279 kts 238°
2026-05-06 02:36 40.12759 -85.64519 14797 ft 271 kts 239°
2026-05-06 02:37 40.11819 -85.66703 14411 ft 265 kts 239°
2026-05-06 02:37 40.10901 -85.68844 14055 ft 258 kts 238°
2026-05-06 02:37 40.10020 -85.70908 13814 ft 249 kts 237°
2026-05-06 02:37 40.09190 -85.72852 13550 ft 242 kts 238°
2026-05-06 02:38 40.08344 -85.74828 13312 ft 235 kts 238°
2026-05-06 02:38 40.07516 -85.76759 13082 ft 227 kts 238°
2026-05-06 02:38 40.06723 -85.78626 12836 ft 221 kts 237°
2026-05-06 02:38 40.05950 -85.80421 12574 ft 220 kts 236°
2026-05-06 02:39 40.04935 -85.81934 12213 ft 221 kts 219°
2026-05-06 02:39 40.03698 -85.83179 11809 ft 223 kts 218°
2026-05-06 02:39 40.02472 -85.84422 11477 ft 222 kts 218°
2026-05-06 02:39 40.01255 -85.85661 11143 ft 220 kts 218°
2026-05-06 02:40 40.00049 -85.86892 10820 ft 219 kts 218°
2026-05-06 02:40 39.98851 -85.88119 10503 ft 218 kts 218°
2026-05-06 02:40 39.97654 -85.89346 10182 ft 220 kts 217°
2026-05-06 02:40 39.96491 -85.90539 9925 ft 218 kts 218°
2026-05-06 02:41 39.95296 -85.91772 9866 ft 220 kts 218°
2026-05-06 02:41 39.94085 -85.93014 9854 ft 222 kts 217°
2026-05-06 02:41 39.92872 -85.94262 9862 ft 222 kts 217°
2026-05-06 02:41 39.91665 -85.95503 9899 ft 221 kts 217°
2026-05-06 02:42 39.90457 -85.96741 9872 ft 217 kts 217°
2026-05-06 02:42 39.89243 -85.97970 9629 ft 221 kts 217°
2026-05-06 02:42 39.88088 -85.99113 9503 ft 214 kts 216°
2026-05-06 02:42 39.86887 -86.00290 9311 ft 216 kts 217°
2026-05-06 02:43 39.85753 -86.01414 9125 ft 216 kts 217°
2026-05-06 02:43 39.84544 -86.02620 8882 ft 219 kts 218°
2026-05-06 02:43 39.83348 -86.03812 8683 ft 218 kts 218°
2026-05-06 02:43 39.82136 -86.05015 8490 ft 219 kts 218°
2026-05-06 02:44 39.80920 -86.06223 8267 ft 219 kts 219°
2026-05-06 02:44 39.79705 -86.07428 8062 ft 219 kts 219°
2026-05-06 02:44 39.78495 -86.08628 7861 ft 218 kts 219°
2026-05-06 02:44 39.77286 -86.09828 7657 ft 220 kts 219°
2026-05-06 02:45 39.76063 -86.11042 7452 ft 221 kts 219°
2026-05-06 02:45 39.74833 -86.12259 7234 ft 223 kts 220°
2026-05-06 02:45 39.73593 -86.13475 7017 ft 222 kts 220°
2026-05-06 02:45 39.72362 -86.14678 6865 ft 220 kts 220°
2026-05-06 02:46 39.71121 -86.15892 6858 ft 224 kts 220°
2026-05-06 02:46 39.69870 -86.17116 6857 ft 224 kts 220°
2026-05-06 02:46 39.68615 -86.18341 6869 ft 224 kts 220°
2026-05-06 02:46 39.67352 -86.19576 6861 ft 225 kts 220°
2026-05-06 02:47 39.66149 -86.20882 6867 ft 221 kts 228°
2026-05-06 02:47 39.65038 -86.22308 6698 ft 223 kts 228°
2026-05-06 02:47 39.63920 -86.23747 6315 ft 224 kts 228°
2026-05-06 02:47 39.62791 -86.25198 5870 ft 228 kts 228°
2026-05-06 02:48 39.61638 -86.26680 5389 ft 225 kts 228°
2026-05-06 02:48 39.60511 -86.28120 4947 ft 217 kts 228°
2026-05-06 02:48 39.59436 -86.29498 4514 ft 212 kts 227°
2026-05-06 02:48 39.58387 -86.30843 4092 ft 208 kts 227°
2026-05-06 02:49 39.57343 -86.32194 3656 ft 207 kts 227°
2026-05-06 02:49 39.56305 -86.33545 3230 ft 205 kts 227°
2026-05-06 02:49 39.55284 -86.34875 2912 ft 196 kts 227°
2026-05-06 02:49 39.54356 -86.36081 2904 ft 185 kts 227°
2026-05-06 02:50 39.53403 -86.37323 2867 ft 186 kts 227°
2026-05-06 02:50 39.52454 -86.38525 2867 ft 187 kts 225°
2026-05-06 02:50 39.51525 -86.39653 2912 ft 176 kts 225°
2026-05-06 02:50 39.50624 -86.40743 2900 ft 174 kts 224°
2026-05-06 02:51 39.49718 -86.41845 2924 ft 171 kts 226°
2026-05-06 02:51 39.48827 -86.42955 2933 ft 171 kts 233°
2026-05-06 02:51 39.48484 -86.44388 2937 ft 158 kts 286°
2026-05-06 02:51 39.48987 -86.45631 2923 ft 149 kts 314°
2026-05-06 02:52 39.49664 -86.46729 2936 ft 148 kts 315°
2026-05-06 02:52 39.50422 -86.47683 2965 ft 143 kts 334°
2026-05-06 02:52 39.51339 -86.48290 2956 ft 140 kts 338°
2026-05-06 02:52 39.52243 -86.48876 2971 ft 140 kts 337°
2026-05-06 02:53 39.53151 -86.49470 2967 ft 139 kts 337°
2026-05-06 02:53 39.54076 -86.49972 2952 ft 136 kts 354°
2026-05-06 02:53 39.54993 -86.49667 2971 ft 137 kts 33°
2026-05-06 02:53 39.55678 -86.48825 2960 ft 133 kts 43°
2026-05-06 02:54 39.56324 -86.47900 2971 ft 132 kts 43°
2026-05-06 02:54 39.56990 -86.47025 2974 ft 132 kts 40°
2026-05-06 02:54 39.57637 -86.46203 2961 ft 126 kts 39°
2026-05-06 02:54 39.58260 -86.45414 2976 ft 122 kts 40°
2026-05-06 02:55 39.58869 -86.44644 2950 ft 122 kts 40°
2026-05-06 02:55 39.59471 -86.43882 2951 ft 120 kts 40°
2026-05-06 02:55 39.60078 -86.43113 2924 ft 121 kts 40°
2026-05-06 02:55 39.60685 -86.42344 2949 ft 123 kts 41°
2026-05-06 02:56 39.61300 -86.41563 2911 ft 121 kts 40°
2026-05-06 02:56 39.61907 -86.40790 2926 ft 119 kts 40°
2026-05-06 02:56 39.62505 -86.40032 2861 ft 120 kts 40°
2026-05-06 02:56 39.63098 -86.39278 2727 ft 119 kts 40°
2026-05-06 02:57 39.63690 -86.38527 2571 ft 119 kts 40°
2026-05-06 02:57 39.64285 -86.37773 2412 ft 120 kts 41°
2026-05-06 02:57 39.64882 -86.37011 2254 ft 120 kts 41°
2026-05-06 02:57 39.65479 -86.36250 2079 ft 117 kts 41°
2026-05-06 02:58 39.66068 -86.35502 1924 ft 118 kts 41°
2026-05-06 02:58 39.66650 -86.34762 1764 ft 117 kts 41°
2026-05-06 02:58 39.67233 -86.34021 1650 ft 117 kts 40°
2026-05-06 02:58 39.67815 -86.33283 1453 ft 115 kts 42°
2026-05-06 02:59 39.68377 -86.32543 1308 ft 115 kts 43°
2026-05-06 02:59 39.68943 -86.31813 1125 ft 113 kts 42°
2026-05-06 02:59 39.69503 -86.31111 931 ft 111 kts 41°
2026-05-06 02:59 39.70047 -86.30414 799 ft 106 kts 44°
2026-05-06 03:00 39.70505 -86.29830 790 ft 69 kts 44°
2026-05-06 03:00 39.70713 -86.29566 789 ft 23 kts 44°
2026-05-06 03:00 39.70767 -86.29459 790 ft 11 kts 60°
2026-05-06 03:00 39.70794 -86.29381 790 ft 7 kts 115°
2026-05-06 03:01 39.70777 -86.29356 791 ft 0 kts 135°
2026-05-06 03:01 39.70771 -86.29348 791 ft 5 kts 136°
2026-05-06 03:02 39.70770 -86.29294 792 ft 11 kts 47°
2026-05-06 03:02 39.70843 -86.29199 792 ft 17 kts 44°
2026-05-06 03:02 39.70919 -86.29102 792 ft 16 kts 45°
2026-05-06 03:02 39.70998 -86.29001 791 ft 14 kts 45°
2026-05-06 03:03 39.71068 -86.28911 791 ft 14 kts 44°
2026-05-06 03:03 39.71143 -86.28816 791 ft 14 kts 45°
2026-05-06 03:03 39.71210 -86.28730 791 ft 14 kts 45°
2026-05-06 03:03 39.71273 -86.28650 790 ft 13 kts 44°
2026-05-06 03:04 39.71333 -86.28574 790 ft 9 kts 45°
2026-05-06 03:04 39.71390 -86.28500 790 ft 12 kts 45°
2026-05-06 03:04 39.71451 -86.28422 790 ft 14 kts 45°
2026-05-06 03:04 39.71518 -86.28337 789 ft 12 kts 45°
2026-05-06 03:05 39.71575 -86.28259 789 ft 12 kts 53°
2026-05-06 03:05 39.71614 -86.28159 789 ft 11 kts 71°
2026-05-06 03:05 39.71650 -86.28073 789 ft 11 kts 52°
2026-05-06 03:05 39.71712 -86.27989 788 ft 10 kts 45°
2026-05-06 03:06 39.71774 -86.27911 788 ft 10 kts 45°
2026-05-06 03:06 39.71833 -86.27835 788 ft 13 kts 45°
2026-05-06 03:06 39.71899 -86.27752 788 ft 12 kts 45°
2026-05-06 03:06 39.71954 -86.27681 788 ft 10 kts 44°
2026-05-06 03:07 39.72012 -86.27608 788 ft 11 kts 44°
2026-05-06 03:07 39.72043 -86.27567 787 ft 8 kts 45°
2026-05-06 03:07 39.72068 -86.27486 787 ft 12 kts 113°
2026-05-06 03:07 39.72010 -86.27405 786 ft 13 kts 134°
2026-05-06 03:08 39.71958 -86.27334 784 ft 6 kts 127°
2026-05-06 03:08 39.71947 -86.27295 783 ft 0 kts 88°
2026-05-06 03:08 39.71947 -86.27291 783 ft 2 kts 85°
2026-05-06 03:08 39.71959 -86.27242 783 ft 8 kts 68°
2026-05-06 03:09 39.71986 -86.27161 782 ft 10 kts 68°
2026-05-06 03:09 39.72013 -86.27079 782 ft 9 kts 62°
2026-05-06 03:09 39.72063 -86.27008 782 ft 11 kts 45°
2026-05-06 03:09 39.72114 -86.26941 781 ft 9 kts 44°
2026-05-06 03:10 39.72173 -86.26924 782 ft 9 kts 329°
2026-05-06 03:10 39.72230 -86.26995 783 ft 13 kts 314°
2026-05-06 03:10 39.72285 -86.27068 785 ft 11 kts 315°
2026-05-06 03:10 39.72343 -86.27144 786 ft 12 kts 315°
2026-05-06 03:11 39.72396 -86.27212 788 ft 7 kts 328°
2026-05-06 03:11 39.72453 -86.27220 788 ft 10 kts
2026-05-06 03:11 39.72521 -86.27210 789 ft 11 kts 31°
2026-05-06 03:11 39.72576 -86.27145 789 ft 6 kts 47°
2026-05-06 03:12 39.72601 -86.27113 789 ft 5 kts
2026-05-06 03:12 39.72606 -86.27162 790 ft 6 kts 230°
2026-05-06 03:12 39.72598 -86.27173 790 ft 0 kts 225°